Location: Austin
(30.3000°N, 97.7500°W)
Time: 05:46:05
(UTC-06:00)

USA 238 DEB - Pass Details

Date: 05 February 2026
Orbit: 883 x 1328 km, 63.4° (Epoch: 10 January)

Event Time Altitude Azimuth Distance (km) Brightness Sun altitude
Exits shadow 05:29:20 49° 306° (NW) 1,188 3.6 -24.0°
Drops below altitude 10° 05:35:24 10° 18° (NNE) 2,757 6.0 -22.7°
Sets 05:38:13 0° 24° (NNE) 3,775 6.8 -22.1°
